Year,Month,Day,Hour,Minute,Value (Times are PST for temperature in C)
2021,06,08,00,00,10.10
2021,06,08,00,01,10.00
2021,06,08,00,02,9.90
2021,06,08,00,03,9.90
2021,06,08,00,04,9.90
2021,06,08,00,05,9.90
2021,06,08,00,06,9.80
2021,06,08,00,07,9.80
2021,06,08,00,08,9.80
2021,06,08,00,09,9.70
2021,06,08,00,10,9.70
2021,06,08,00,11,9.70
2021,06,08,00,12,9.70
2021,06,08,00,13,9.70
2021,06,08,00,14,9.60
2021,06,08,00,15,9.60
2021,06,08,00,16,9.60
2021,06,08,00,17,9.60
2021,06,08,00,18,9.50
2021,06,08,00,19,9.50
2021,06,08,00,20,9.50
2021,06,08,00,21,9.40
2021,06,08,00,22,9.40
2021,06,08,00,23,9.40
2021,06,08,00,24,9.40
2021,06,08,00,25,9.30
2021,06,08,00,26,9.30
2021,06,08,00,27,9.30
2021,06,08,00,28,9.20
2021,06,08,00,29,9.20
2021,06,08,00,30,9.20
2021,06,08,00,31,9.20
2021,06,08,00,32,9.20
2021,06,08,00,33,9.20
2021,06,08,00,34,9.20
2021,06,08,00,35,9.10
2021,06,08,00,36,9.10
2021,06,08,00,37,9.10
2021,06,08,00,38,9.10
2021,06,08,00,39,9.00
2021,06,08,00,40,9.00
2021,06,08,00,41,9.00
2021,06,08,00,42,9.00
2021,06,08,00,43,8.90
2021,06,08,00,44,8.90
2021,06,08,00,45,8.90
2021,06,08,00,46,8.90
2021,06,08,00,47,8.80
2021,06,08,00,48,8.80
2021,06,08,00,49,8.80
2021,06,08,00,50,8.80
2021,06,08,00,51,8.80
2021,06,08,00,52,8.70
2021,06,08,00,53,8.70
2021,06,08,00,54,8.70
2021,06,08,00,55,8.70
2021,06,08,00,56,8.70
2021,06,08,00,57,8.70
2021,06,08,00,58,8.70
2021,06,08,00,59,8.70
2021,06,08,01,00,8.70
2021,06,08,01,01,8.70
2021,06,08,01,02,8.70
2021,06,08,01,03,8.70
2021,06,08,01,04,8.70
2021,06,08,01,05,8.70
2021,06,08,01,06,8.70
2021,06,08,01,07,8.70
2021,06,08,01,08,8.60
2021,06,08,01,09,8.60
2021,06,08,01,10,8.60
2021,06,08,01,11,8.60
2021,06,08,01,12,8.60
2021,06,08,01,13,8.60
2021,06,08,01,14,8.60
2021,06,08,01,15,8.60
2021,06,08,01,16,8.60
2021,06,08,01,17,8.60
2021,06,08,01,18,8.60
2021,06,08,01,19,8.50
2021,06,08,01,20,8.50
2021,06,08,01,21,8.50
2021,06,08,01,22,8.50
2021,06,08,01,23,8.50
2021,06,08,01,24,8.50
2021,06,08,01,25,8.40
2021,06,08,01,26,8.40
2021,06,08,01,27,8.40
2021,06,08,01,28,8.40
2021,06,08,01,29,8.40
2021,06,08,01,30,8.30
2021,06,08,01,31,8.30
2021,06,08,01,32,8.30
2021,06,08,01,33,8.30
2021,06,08,01,34,8.30
2021,06,08,01,35,8.30
2021,06,08,01,36,8.30
2021,06,08,01,37,8.30
2021,06,08,01,38,8.20
2021,06,08,01,39,8.20
2021,06,08,01,40,8.20
2021,06,08,01,41,8.20
2021,06,08,01,42,8.20
2021,06,08,01,43,8.20
2021,06,08,01,44,8.20
2021,06,08,01,45,8.20
2021,06,08,01,46,8.20
2021,06,08,01,47,8.20
2021,06,08,01,48,8.20
2021,06,08,01,49,8.20
2021,06,08,01,50,8.20
2021,06,08,01,51,8.20
2021,06,08,01,52,8.20
2021,06,08,01,53,8.20
2021,06,08,01,54,8.20
2021,06,08,01,55,8.20
2021,06,08,01,56,8.20
2021,06,08,01,57,8.20
2021,06,08,01,58,8.20
2021,06,08,01,59,8.20
2021,06,08,02,00,8.20
2021,06,08,02,01,8.20
2021,06,08,02,02,8.20
2021,06,08,02,03,8.20
2021,06,08,02,04,8.20
2021,06,08,02,05,8.20
2021,06,08,02,06,8.20
2021,06,08,02,07,8.20
2021,06,08,02,08,8.20
2021,06,08,02,09,8.20
2021,06,08,02,10,8.20
2021,06,08,02,11,8.20
2021,06,08,02,12,8.20
2021,06,08,02,13,8.20
2021,06,08,02,14,8.10
2021,06,08,02,15,8.10
2021,06,08,02,16,8.10
2021,06,08,02,17,8.10
2021,06,08,02,18,8.10
2021,06,08,02,19,8.10
2021,06,08,02,20,8.10
2021,06,08,02,21,8.00
2021,06,08,02,22,8.00
2021,06,08,02,23,8.00
2021,06,08,02,24,8.00
2021,06,08,02,25,8.00
2021,06,08,02,26,8.00
2021,06,08,02,27,8.00
2021,06,08,02,28,8.00
2021,06,08,02,29,8.00
2021,06,08,02,30,8.00
2021,06,08,02,31,7.90
2021,06,08,02,32,7.90
2021,06,08,02,33,7.90
2021,06,08,02,34,7.90
2021,06,08,02,35,7.90
2021,06,08,02,36,7.90
2021,06,08,02,37,7.90
2021,06,08,02,38,7.90
2021,06,08,02,39,7.80
2021,06,08,02,40,7.80
2021,06,08,02,41,7.80
2021,06,08,02,42,7.80
2021,06,08,02,43,7.80
2021,06,08,02,44,7.80
2021,06,08,02,45,7.80
2021,06,08,02,46,7.80
2021,06,08,02,47,7.80
2021,06,08,02,48,7.70
2021,06,08,02,49,7.70
2021,06,08,02,50,7.70
2021,06,08,02,51,7.70
2021,06,08,02,52,7.60
2021,06,08,02,53,7.60
2021,06,08,02,54,7.60
2021,06,08,02,55,7.60
2021,06,08,02,56,7.60
2021,06,08,02,57,7.60
2021,06,08,02,58,7.60
2021,06,08,02,59,7.60
2021,06,08,03,00,7.60
2021,06,08,03,01,7.60
2021,06,08,03,02,7.50
2021,06,08,03,03,7.50
2021,06,08,03,04,7.50
2021,06,08,03,05,7.50
2021,06,08,03,06,7.50
2021,06,08,03,07,7.50
2021,06,08,03,08,7.50
2021,06,08,03,09,7.50
2021,06,08,03,10,7.50
2021,06,08,03,11,7.50
2021,06,08,03,12,7.50
2021,06,08,03,13,7.50
2021,06,08,03,14,7.50
2021,06,08,03,15,7.50
2021,06,08,03,16,7.50
2021,06,08,03,17,7.50
2021,06,08,03,18,7.50
2021,06,08,03,19,7.50
2021,06,08,03,20,7.50
2021,06,08,03,21,7.50
2021,06,08,03,22,7.40
2021,06,08,03,23,7.40
2021,06,08,03,24,7.40
2021,06,08,03,25,7.40
2021,06,08,03,26,7.40
2021,06,08,03,27,7.40
2021,06,08,03,28,7.40
2021,06,08,03,29,7.40
2021,06,08,03,30,7.30
2021,06,08,03,31,7.30
2021,06,08,03,32,7.30
2021,06,08,03,33,7.30
2021,06,08,03,34,7.30
2021,06,08,03,35,7.30
2021,06,08,03,36,7.30
2021,06,08,03,37,7.30
2021,06,08,03,38,7.30
2021,06,08,03,39,7.30
2021,06,08,03,40,7.30
2021,06,08,03,41,7.30
2021,06,08,03,42,7.30
2021,06,08,03,43,7.30
2021,06,08,03,44,7.30
2021,06,08,03,45,7.30
2021,06,08,03,46,7.30
2021,06,08,03,47,7.30
2021,06,08,03,48,7.20
2021,06,08,03,49,7.20
2021,06,08,03,50,7.20
2021,06,08,03,51,7.20
2021,06,08,03,52,7.20
2021,06,08,03,53,7.20
2021,06,08,03,54,7.20
2021,06,08,03,55,7.20
2021,06,08,03,56,7.20
2021,06,08,03,57,7.20
2021,06,08,03,58,7.20
2021,06,08,03,59,7.20
2021,06,08,04,00,7.20
2021,06,08,04,01,7.20
2021,06,08,04,02,7.30
2021,06,08,04,03,7.20
2021,06,08,04,04,7.20
2021,06,08,04,05,7.20
2021,06,08,04,06,7.20
2021,06,08,04,07,7.20
2021,06,08,04,08,7.20
2021,06,08,04,09,7.20
2021,06,08,04,10,7.20
2021,06,08,04,11,7.20
2021,06,08,04,12,7.20
2021,06,08,04,13,7.20
2021,06,08,04,14,7.30
2021,06,08,04,15,7.30
2021,06,08,04,16,7.30
2021,06,08,04,17,7.30
2021,06,08,04,18,7.30
2021,06,08,04,19,7.30
2021,06,08,04,20,7.30
2021,06,08,04,21,7.20
2021,06,08,04,22,7.20
2021,06,08,04,23,7.20
2021,06,08,04,24,7.30
2021,06,08,04,25,7.30
2021,06,08,04,26,7.30
2021,06,08,04,27,7.30
2021,06,08,04,28,7.30
2021,06,08,04,29,7.30
2021,06,08,04,30,7.30
2021,06,08,04,31,7.20
2021,06,08,04,32,7.10
2021,06,08,04,33,7.10
2021,06,08,04,34,7.10
2021,06,08,04,35,7.10
2021,06,08,04,36,7.10
2021,06,08,04,37,7.20
2021,06,08,04,38,7.20
2021,06,08,04,39,7.20
2021,06,08,04,40,7.30
2021,06,08,04,41,7.30
2021,06,08,04,42,7.30
2021,06,08,04,43,7.30
2021,06,08,04,44,7.30
2021,06,08,04,45,7.30
2021,06,08,04,46,7.30
2021,06,08,04,47,7.30
2021,06,08,04,48,7.30
2021,06,08,04,49,7.30
2021,06,08,04,50,7.30
2021,06,08,04,51,7.30
2021,06,08,04,52,7.30
2021,06,08,04,53,7.30
2021,06,08,04,54,7.30
2021,06,08,04,55,7.30
2021,06,08,04,56,7.30
2021,06,08,04,57,7.30
2021,06,08,04,58,7.30
2021,06,08,04,59,7.30
2021,06,08,05,00,7.30
2021,06,08,05,01,7.30
2021,06,08,05,02,7.30
2021,06,08,05,03,7.30
2021,06,08,05,04,7.30
2021,06,08,05,05,7.30
2021,06,08,05,06,7.30
2021,06,08,05,07,7.30
2021,06,08,05,08,7.30
2021,06,08,05,09,7.30
2021,06,08,05,10,7.20
2021,06,08,05,11,7.20
2021,06,08,05,12,7.20
2021,06,08,05,13,7.20
2021,06,08,05,14,7.20
2021,06,08,05,15,7.10
2021,06,08,05,16,7.10
2021,06,08,05,17,7.10
2021,06,08,05,18,7.10
2021,06,08,05,19,7.10
2021,06,08,05,20,7.10
2021,06,08,05,21,7.10
2021,06,08,05,22,7.00
2021,06,08,05,23,7.00
2021,06,08,05,24,7.00
2021,06,08,05,25,7.00
2021,06,08,05,26,7.00
2021,06,08,05,27,7.00
2021,06,08,05,28,7.00
2021,06,08,05,29,7.10
2021,06,08,05,30,7.10
2021,06,08,05,31,7.10
2021,06,08,05,32,7.10
2021,06,08,05,33,7.10
2021,06,08,05,34,7.10
2021,06,08,05,35,7.10
2021,06,08,05,36,7.20
2021,06,08,05,37,7.20
2021,06,08,05,38,7.20
2021,06,08,05,39,7.20
2021,06,08,05,40,7.30
2021,06,08,05,41,7.30
2021,06,08,05,42,7.30
2021,06,08,05,43,7.30
2021,06,08,05,44,7.30
2021,06,08,05,45,7.30
2021,06,08,05,46,7.30
2021,06,08,05,47,7.30
2021,06,08,05,48,7.30
2021,06,08,05,49,7.30
2021,06,08,05,50,7.30
2021,06,08,05,51,7.30
2021,06,08,05,52,7.30
2021,06,08,05,53,7.30
2021,06,08,05,54,7.30
2021,06,08,05,55,7.30
2021,06,08,05,56,7.30
2021,06,08,05,57,7.30
2021,06,08,05,58,7.30
2021,06,08,05,59,7.30
2021,06,08,06,00,7.30
2021,06,08,06,01,7.30
2021,06,08,06,02,7.30
2021,06,08,06,03,7.30
2021,06,08,06,04,7.30
2021,06,08,06,05,7.30
2021,06,08,06,06,7.30
2021,06,08,06,07,7.30
2021,06,08,06,08,7.30
2021,06,08,06,09,7.30
2021,06,08,06,10,7.30
2021,06,08,06,11,7.30
2021,06,08,06,12,7.30
2021,06,08,06,13,7.30
2021,06,08,06,14,7.30
2021,06,08,06,15,7.30
2021,06,08,06,16,7.30
2021,06,08,06,17,7.30
2021,06,08,06,18,7.40
2021,06,08,06,19,7.40
2021,06,08,06,20,7.50
2021,06,08,06,21,7.50
2021,06,08,06,22,7.60
2021,06,08,06,23,7.60
2021,06,08,06,24,7.70
2021,06,08,06,25,7.70
2021,06,08,06,26,7.80
2021,06,08,06,27,7.80
2021,06,08,06,28,7.90
2021,06,08,06,29,8.00
2021,06,08,06,30,8.00
2021,06,08,06,31,8.10
2021,06,08,06,32,8.20
2021,06,08,06,33,8.20
2021,06,08,06,34,8.20
2021,06,08,06,35,8.30
2021,06,08,06,36,8.30
2021,06,08,06,37,8.30
2021,06,08,06,38,8.40
2021,06,08,06,39,8.40
2021,06,08,06,40,8.40
2021,06,08,06,41,8.50
2021,06,08,06,42,8.50
2021,06,08,06,43,8.60
2021,06,08,06,44,8.70
2021,06,08,06,45,8.70
2021,06,08,06,46,8.70
2021,06,08,06,47,8.70
2021,06,08,06,48,8.80
2021,06,08,06,49,8.80
2021,06,08,06,50,8.80
2021,06,08,06,51,8.90
2021,06,08,06,52,8.90
2021,06,08,06,53,9.00
2021,06,08,06,54,9.10
2021,06,08,06,55,9.20
2021,06,08,06,56,9.20
2021,06,08,06,57,9.30
2021,06,08,06,58,9.30
2021,06,08,06,59,9.40
2021,06,08,07,00,9.40
2021,06,08,07,01,9.50
2021,06,08,07,02,9.50
2021,06,08,07,03,9.50
2021,06,08,07,04,9.60
2021,06,08,07,05,9.70
2021,06,08,07,06,9.70
2021,06,08,07,07,9.80
2021,06,08,07,08,9.90
2021,06,08,07,09,9.90
2021,06,08,07,10,10.00
2021,06,08,07,11,10.10
2021,06,08,07,12,10.30
2021,06,08,07,13,10.40
2021,06,08,07,14,10.40
2021,06,08,07,15,10.40
2021,06,08,07,16,10.40
2021,06,08,07,17,10.40
2021,06,08,07,18,10.40
2021,06,08,07,19,10.60
2021,06,08,07,20,10.60
2021,06,08,07,21,10.80
2021,06,08,07,22,10.90
2021,06,08,07,23,10.90
2021,06,08,07,24,11.00
2021,06,08,07,25,11.10
2021,06,08,07,26,11.10
2021,06,08,07,27,11.20
2021,06,08,07,28,11.20
2021,06,08,07,29,11.30
2021,06,08,07,30,11.30
2021,06,08,07,31,11.40
2021,06,08,07,32,11.40
2021,06,08,07,33,11.60
2021,06,08,07,34,11.60
2021,06,08,07,35,11.60
2021,06,08,07,36,11.70
2021,06,08,07,37,11.70
2021,06,08,07,38,11.80
2021,06,08,07,39,11.80
2021,06,08,07,40,11.80
2021,06,08,07,41,11.90
2021,06,08,07,42,11.90
2021,06,08,07,43,12.00
2021,06,08,07,44,12.10
2021,06,08,07,45,12.10
2021,06,08,07,46,12.20
2021,06,08,07,47,12.20
2021,06,08,07,48,12.30
2021,06,08,07,49,12.30
2021,06,08,07,50,12.30
2021,06,08,07,51,12.30
2021,06,08,07,52,12.30
2021,06,08,07,53,12.40
2021,06,08,07,54,12.40
2021,06,08,07,55,12.50
2021,06,08,07,56,12.50
2021,06,08,07,57,12.50
2021,06,08,07,58,12.50
2021,06,08,07,59,12.60
2021,06,08,08,00,12.70
2021,06,08,08,01,12.70
2021,06,08,08,02,12.80
2021,06,08,08,03,12.80
2021,06,08,08,04,12.80
2021,06,08,08,05,12.80
2021,06,08,08,06,12.90
2021,06,08,08,07,12.90
2021,06,08,08,08,13.00
2021,06,08,08,09,13.10
2021,06,08,08,10,13.10
2021,06,08,08,11,13.10
2021,06,08,08,12,13.10
2021,06,08,08,13,13.10
2021,06,08,08,14,13.20
2021,06,08,08,15,13.30
2021,06,08,08,16,13.30
2021,06,08,08,17,13.40
2021,06,08,08,18,13.40
2021,06,08,08,19,13.40
2021,06,08,08,20,13.40
2021,06,08,08,21,13.30
2021,06,08,08,22,13.30
2021,06,08,08,23,13.30
2021,06,08,08,24,13.40
2021,06,08,08,25,13.40
2021,06,08,08,26,13.50
2021,06,08,08,27,13.50
2021,06,08,08,28,13.50
2021,06,08,08,29,13.60
2021,06,08,08,30,13.60
2021,06,08,08,31,13.60
2021,06,08,08,32,13.60
2021,06,08,08,33,13.60
2021,06,08,08,34,13.70
2021,06,08,08,35,13.70
2021,06,08,08,36,13.70
2021,06,08,08,37,13.80
2021,06,08,08,38,13.90
2021,06,08,08,39,13.90
2021,06,08,08,40,14.00
2021,06,08,08,41,14.00
2021,06,08,08,42,14.00
2021,06,08,08,43,14.00
2021,06,08,08,44,14.00
2021,06,08,08,45,14.00
2021,06,08,08,46,14.00
2021,06,08,08,47,14.10
2021,06,08,08,48,14.20
2021,06,08,08,49,14.20
2021,06,08,08,50,14.20
2021,06,08,08,51,14.30
2021,06,08,08,52,14.30
2021,06,08,08,53,14.30
2021,06,08,08,54,14.40
2021,06,08,08,55,14.40
2021,06,08,08,56,14.40
2021,06,08,08,57,14.40
2021,06,08,08,58,14.40
2021,06,08,08,59,14.40
2021,06,08,09,00,14.30
2021,06,08,09,01,14.20
2021,06,08,09,02,14.20
2021,06,08,09,03,14.10
2021,06,08,09,04,14.10
2021,06,08,09,05,14.10
2021,06,08,09,06,14.10
2021,06,08,09,07,14.10
2021,06,08,09,08,14.20
2021,06,08,09,09,14.20
2021,06,08,09,10,14.20
2021,06,08,09,11,14.40
2021,06,08,09,12,14.50
2021,06,08,09,13,14.60
2021,06,08,09,14,14.70
2021,06,08,09,15,14.80
2021,06,08,09,16,14.80
2021,06,08,09,17,14.90
2021,06,08,09,18,14.90
2021,06,08,09,19,15.00
2021,06,08,09,20,14.90
2021,06,08,09,21,14.70
2021,06,08,09,22,14.50
2021,06,08,09,23,14.40
2021,06,08,09,24,14.20
2021,06,08,09,25,14.10
2021,06,08,09,26,13.90
2021,06,08,09,27,13.80
2021,06,08,09,28,13.60
2021,06,08,09,29,13.50
2021,06,08,09,30,13.40
2021,06,08,09,31,13.40
2021,06,08,09,32,13.40
2021,06,08,09,33,13.40
2021,06,08,09,34,13.50
2021,06,08,09,35,13.50
2021,06,08,09,36,13.40
2021,06,08,09,37,13.30
2021,06,08,09,38,13.30
2021,06,08,09,39,13.30
2021,06,08,09,40,13.30
2021,06,08,09,41,13.40
2021,06,08,09,42,13.50
2021,06,08,09,43,13.60
2021,06,08,09,44,13.70
2021,06,08,09,45,13.70
2021,06,08,09,46,13.70
2021,06,08,09,47,13.70
2021,06,08,09,48,13.70
2021,06,08,09,49,13.70
2021,06,08,09,50,13.70
2021,06,08,09,51,13.70
2021,06,08,09,52,13.80
2021,06,08,09,53,13.80
2021,06,08,09,54,13.90
2021,06,08,09,55,13.90
2021,06,08,09,56,14.00
2021,06,08,09,57,14.10
2021,06,08,09,58,14.20
2021,06,08,09,59,14.20
2021,06,08,10,00,14.40
2021,06,08,10,01,14.50
2021,06,08,10,02,14.60
2021,06,08,10,03,14.70
2021,06,08,10,04,14.80
2021,06,08,10,05,14.80
2021,06,08,10,06,14.80
2021,06,08,10,07,14.90
2021,06,08,10,08,14.90
2021,06,08,10,09,14.90
2021,06,08,10,10,15.00
2021,06,08,10,11,15.00
2021,06,08,10,12,15.00
2021,06,08,10,13,15.00
2021,06,08,10,14,15.00
2021,06,08,10,15,14.90
2021,06,08,10,16,14.90
2021,06,08,10,17,14.90
2021,06,08,10,18,14.90
2021,06,08,10,19,15.00
2021,06,08,10,20,15.00
2021,06,08,10,21,15.10
2021,06,08,10,22,15.20
2021,06,08,10,23,15.30
2021,06,08,10,24,15.20
2021,06,08,10,25,15.20
2021,06,08,10,26,15.10
2021,06,08,10,27,15.20
2021,06,08,10,28,15.10
2021,06,08,10,29,15.10
2021,06,08,10,30,15.10
2021,06,08,10,31,15.10
2021,06,08,10,32,15.30
2021,06,08,10,33,15.30
2021,06,08,10,34,15.30
2021,06,08,10,35,15.50
2021,06,08,10,36,15.50
2021,06,08,10,37,15.40
2021,06,08,10,38,15.30
2021,06,08,10,39,15.30
2021,06,08,10,40,15.30
2021,06,08,10,41,15.30
2021,06,08,10,42,15.30
2021,06,08,10,43,15.40
2021,06,08,10,44,15.30
2021,06,08,10,45,15.30
2021,06,08,10,46,15.50
2021,06,08,10,47,15.50
2021,06,08,10,48,15.50
2021,06,08,10,49,15.50
2021,06,08,10,50,15.60
2021,06,08,10,51,15.60
2021,06,08,10,52,15.70
2021,06,08,10,53,15.70
2021,06,08,10,54,15.70
2021,06,08,10,55,15.70
2021,06,08,10,56,15.80
2021,06,08,10,57,15.70
2021,06,08,10,58,15.70
2021,06,08,10,59,15.60
2021,06,08,11,00,15.60
2021,06,08,11,01,15.60
2021,06,08,11,02,15.60
2021,06,08,11,03,15.60
2021,06,08,11,04,15.50
2021,06,08,11,05,15.50
2021,06,08,11,06,15.50
2021,06,08,11,07,15.60
2021,06,08,11,08,15.60
2021,06,08,11,09,15.60
2021,06,08,11,10,15.60
2021,06,08,11,11,15.60
2021,06,08,11,12,15.60
2021,06,08,11,13,15.60
2021,06,08,11,14,15.60
2021,06,08,11,15,15.50
2021,06,08,11,16,15.40
2021,06,08,11,17,15.30
2021,06,08,11,18,15.10
2021,06,08,11,19,14.90
2021,06,08,11,20,14.70
2021,06,08,11,21,14.60
2021,06,08,11,22,14.60
2021,06,08,11,23,14.60
2021,06,08,11,24,14.60
2021,06,08,11,25,14.50
2021,06,08,11,26,14.50
2021,06,08,11,27,14.40
2021,06,08,11,28,14.50
2021,06,08,11,29,14.60
2021,06,08,11,30,14.60
2021,06,08,11,31,14.50
2021,06,08,11,32,14.40
2021,06,08,11,33,14.30
2021,06,08,11,34,14.30
2021,06,08,11,35,14.30
2021,06,08,11,36,14.30
2021,06,08,11,37,14.50
2021,06,08,11,38,14.70
2021,06,08,11,39,14.60
2021,06,08,11,40,14.50
2021,06,08,11,41,14.40
2021,06,08,11,42,14.30
2021,06,08,11,43,14.30
2021,06,08,11,44,14.30
2021,06,08,11,45,14.20
2021,06,08,11,46,14.20
2021,06,08,11,47,14.10
2021,06,08,11,48,14.00
2021,06,08,11,49,14.00
2021,06,08,11,50,14.00
2021,06,08,11,51,13.90
2021,06,08,11,52,13.80
2021,06,08,11,53,13.70
2021,06,08,11,54,13.60
2021,06,08,11,55,13.60
2021,06,08,11,56,13.60
2021,06,08,11,57,13.60
2021,06,08,11,58,13.70
2021,06,08,11,59,13.80
2021,06,08,12,00,14.10
2021,06,08,12,01,14.20
2021,06,08,12,02,14.30
2021,06,08,12,03,14.30
2021,06,08,12,04,14.40
2021,06,08,12,05,14.50
2021,06,08,12,06,14.50
2021,06,08,12,07,14.50
2021,06,08,12,08,14.60
2021,06,08,12,09,14.60
2021,06,08,12,10,14.60
2021,06,08,12,11,14.60
2021,06,08,12,12,14.60
2021,06,08,12,13,14.60
2021,06,08,12,14,14.60
2021,06,08,12,15,14.70
2021,06,08,12,16,14.80
2021,06,08,12,17,14.80
2021,06,08,12,18,14.80
2021,06,08,12,19,14.70
2021,06,08,12,20,14.50
2021,06,08,12,21,14.30
2021,06,08,12,22,14.20
2021,06,08,12,23,14.20
2021,06,08,12,24,14.10
2021,06,08,12,25,14.10
2021,06,08,12,26,14.00
2021,06,08,12,27,13.90
2021,06,08,12,28,13.90
2021,06,08,12,29,13.90
2021,06,08,12,30,13.80
2021,06,08,12,31,13.80
2021,06,08,12,32,13.80
2021,06,08,12,33,13.90
2021,06,08,12,34,14.00
2021,06,08,12,35,14.10
2021,06,08,12,36,14.20
2021,06,08,12,37,14.20
2021,06,08,12,38,14.20
2021,06,08,12,39,14.20
2021,06,08,12,40,14.20
2021,06,08,12,41,14.20
2021,06,08,12,42,14.20
2021,06,08,12,43,14.30
2021,06,08,12,44,14.30
2021,06,08,12,45,14.30
2021,06,08,12,46,14.30
2021,06,08,12,47,14.50
2021,06,08,12,48,14.60
2021,06,08,12,49,14.60
2021,06,08,12,50,14.70
2021,06,08,12,51,14.80
2021,06,08,12,52,14.80
2021,06,08,12,53,14.80
2021,06,08,12,54,14.80
2021,06,08,12,55,14.80
2021,06,08,12,56,14.80
2021,06,08,12,57,14.80
2021,06,08,12,58,14.80
2021,06,08,12,59,14.80
2021,06,08,13,00,15.00
2021,06,08,13,01,15.20
2021,06,08,13,02,15.10
2021,06,08,13,03,15.10
2021,06,08,13,04,15.20
2021,06,08,13,05,15.10
2021,06,08,13,06,15.00
2021,06,08,13,07,14.90
2021,06,08,13,08,14.90
2021,06,08,13,09,14.80
2021,06,08,13,10,14.80
2021,06,08,13,11,14.80
2021,06,08,13,12,14.80
2021,06,08,13,13,14.80
2021,06,08,13,14,14.90
2021,06,08,13,15,15.10
2021,06,08,13,16,15.30
2021,06,08,13,17,15.30
2021,06,08,13,18,15.50
2021,06,08,13,19,15.50
2021,06,08,13,20,15.60
2021,06,08,13,21,15.70
2021,06,08,13,22,15.80
2021,06,08,13,23,15.80
2021,06,08,13,24,15.80
2021,06,08,13,25,15.90
2021,06,08,13,26,15.90
2021,06,08,13,27,15.90
2021,06,08,13,28,15.90
2021,06,08,13,29,16.10
2021,06,08,13,30,16.10
2021,06,08,13,31,16.20
2021,06,08,13,32,16.40
2021,06,08,13,33,16.50
2021,06,08,13,34,16.40
2021,06,08,13,35,16.30
2021,06,08,13,36,16.40
2021,06,08,13,37,16.40
2021,06,08,13,38,16.30
2021,06,08,13,39,16.30
2021,06,08,13,40,16.30
2021,06,08,13,41,16.40
2021,06,08,13,42,16.50
2021,06,08,13,43,16.70
2021,06,08,13,44,16.80
2021,06,08,13,45,16.80
2021,06,08,13,46,16.90
2021,06,08,13,47,17.00
2021,06,08,13,48,16.90
2021,06,08,13,49,16.90
2021,06,08,13,50,16.80
2021,06,08,13,51,16.70
2021,06,08,13,52,16.70
2021,06,08,13,53,16.70
2021,06,08,13,54,16.80
2021,06,08,13,55,16.90
2021,06,08,13,56,17.00
2021,06,08,13,57,17.10
2021,06,08,13,58,17.30
2021,06,08,13,59,17.30
2021,06,08,14,00,17.30
2021,06,08,14,01,17.30
2021,06,08,14,02,17.50
2021,06,08,14,03,17.50
2021,06,08,14,04,17.70
2021,06,08,14,05,17.80
2021,06,08,14,06,17.90
2021,06,08,14,07,17.90
2021,06,08,14,08,17.90
2021,06,08,14,09,17.80
2021,06,08,14,10,17.90
2021,06,08,14,11,17.80
2021,06,08,14,12,17.70
2021,06,08,14,13,17.70
2021,06,08,14,14,17.70
2021,06,08,14,15,17.60
2021,06,08,14,16,17.50
2021,06,08,14,17,17.50
2021,06,08,14,18,17.60
2021,06,08,14,19,17.70
2021,06,08,14,20,17.80
2021,06,08,14,21,17.80
2021,06,08,14,22,17.60
2021,06,08,14,23,17.40
2021,06,08,14,24,17.30
2021,06,08,14,25,17.20
2021,06,08,14,26,17.20
2021,06,08,14,27,17.10
2021,06,08,14,28,17.00
2021,06,08,14,29,16.90
2021,06,08,14,30,16.70
2021,06,08,14,31,16.70
2021,06,08,14,32,16.70
2021,06,08,14,33,16.80
2021,06,08,14,34,16.80
2021,06,08,14,35,16.90
2021,06,08,14,36,17.00
2021,06,08,14,37,17.10
2021,06,08,14,38,17.20
2021,06,08,14,39,17.10
2021,06,08,14,40,17.00
2021,06,08,14,41,17.00
2021,06,08,14,42,16.90
2021,06,08,14,43,16.80
2021,06,08,14,44,16.70
2021,06,08,14,45,16.70
2021,06,08,14,46,16.70
2021,06,08,14,47,16.60
2021,06,08,14,48,16.50
2021,06,08,14,49,16.40
2021,06,08,14,50,16.40
2021,06,08,14,51,16.40
2021,06,08,14,52,16.40
2021,06,08,14,53,16.40
2021,06,08,14,54,16.50
2021,06,08,14,55,16.70
2021,06,08,14,56,16.60
2021,06,08,14,57,16.60
2021,06,08,14,58,16.70
2021,06,08,14,59,16.80
2021,06,08,15,00,17.00
2021,06,08,15,01,17.10
2021,06,08,15,02,17.30
2021,06,08,15,03,17.30
2021,06,08,15,04,17.30
2021,06,08,15,05,17.10
2021,06,08,15,06,16.90
2021,06,08,15,07,16.80
2021,06,08,15,08,16.70
2021,06,08,15,09,16.50
2021,06,08,15,10,16.20
2021,06,08,15,11,16.10
2021,06,08,15,12,15.90
2021,06,08,15,13,15.70
2021,06,08,15,14,15.60
2021,06,08,15,15,15.60
2021,06,08,15,16,15.50
2021,06,08,15,17,15.50
2021,06,08,15,18,15.50
2021,06,08,15,19,15.40
2021,06,08,15,20,15.30
2021,06,08,15,21,15.20
2021,06,08,15,22,15.10
2021,06,08,15,23,15.10
2021,06,08,15,24,15.10
2021,06,08,15,25,15.10
2021,06,08,15,26,15.10
2021,06,08,15,27,15.10
2021,06,08,15,28,15.10
2021,06,08,15,29,14.90
2021,06,08,15,30,14.90
2021,06,08,15,31,14.80
2021,06,08,15,32,14.90
2021,06,08,15,33,15.00
2021,06,08,15,34,15.10
2021,06,08,15,35,15.30
2021,06,08,15,36,15.40
2021,06,08,15,37,15.60
2021,06,08,15,38,15.60
2021,06,08,15,39,15.40
2021,06,08,15,40,15.20
2021,06,08,15,41,15.10
2021,06,08,15,42,15.00
2021,06,08,15,43,15.00
2021,06,08,15,44,15.10
2021,06,08,15,45,15.30
2021,06,08,15,46,15.50
2021,06,08,15,47,15.60
2021,06,08,15,48,15.70
2021,06,08,15,49,15.80
2021,06,08,15,50,15.90
2021,06,08,15,51,15.80
2021,06,08,15,52,15.50
2021,06,08,15,53,15.30
2021,06,08,15,54,15.10
2021,06,08,15,55,15.00
2021,06,08,15,56,14.90
2021,06,08,15,57,14.70
2021,06,08,15,58,14.50
2021,06,08,15,59,14.40
2021,06,08,16,00,14.40
2021,06,08,16,01,14.40
2021,06,08,16,02,14.50
2021,06,08,16,03,14.70
2021,06,08,16,04,14.80
2021,06,08,16,05,14.90
2021,06,08,16,06,14.90
2021,06,08,16,07,14.90
2021,06,08,16,08,14.90
2021,06,08,16,09,14.80
2021,06,08,16,10,14.70
2021,06,08,16,11,14.60
2021,06,08,16,12,14.50
2021,06,08,16,13,14.50
2021,06,08,16,14,14.50
2021,06,08,16,15,14.50
2021,06,08,16,16,14.60
2021,06,08,16,17,14.80
2021,06,08,16,18,15.00
2021,06,08,16,19,15.20
2021,06,08,16,20,15.40
2021,06,08,16,21,15.60
2021,06,08,16,22,15.70
2021,06,08,16,23,15.60
2021,06,08,16,24,15.50
2021,06,08,16,25,15.50
2021,06,08,16,26,15.60
2021,06,08,16,27,15.50
2021,06,08,16,28,15.30
2021,06,08,16,29,15.30
2021,06,08,16,30,15.30
2021,06,08,16,31,15.30
2021,06,08,16,32,15.30
2021,06,08,16,33,15.50
2021,06,08,16,34,15.50
2021,06,08,16,35,15.40
2021,06,08,16,36,15.40
2021,06,08,16,37,15.50
2021,06,08,16,38,15.50
2021,06,08,16,39,15.40
2021,06,08,16,40,15.30
2021,06,08,16,41,15.20
2021,06,08,16,42,15.20
2021,06,08,16,43,15.20
2021,06,08,16,44,15.20
2021,06,08,16,45,15.20
2021,06,08,16,46,15.10
2021,06,08,16,47,15.10
2021,06,08,16,48,15.00
2021,06,08,16,49,15.00
2021,06,08,16,50,15.00
2021,06,08,16,51,15.00
2021,06,08,16,52,15.10
2021,06,08,16,53,15.20
2021,06,08,16,54,15.20
2021,06,08,16,55,15.20
2021,06,08,16,56,15.20
2021,06,08,16,57,15.30
2021,06,08,16,58,15.30
2021,06,08,16,59,15.30
2021,06,08,17,00,15.30
2021,06,08,17,01,15.30
2021,06,08,17,02,15.30
2021,06,08,17,03,15.40
2021,06,08,17,04,15.50
2021,06,08,17,05,15.50
2021,06,08,17,06,15.40
2021,06,08,17,07,15.30
2021,06,08,17,08,15.20
2021,06,08,17,09,15.20
2021,06,08,17,10,15.20
2021,06,08,17,11,15.30
2021,06,08,17,12,15.50
2021,06,08,17,13,15.60
2021,06,08,17,14,15.60
2021,06,08,17,15,15.50
2021,06,08,17,16,15.50
2021,06,08,17,17,15.40
2021,06,08,17,18,15.40
2021,06,08,17,19,15.50
2021,06,08,17,20,15.40
2021,06,08,17,21,15.30
2021,06,08,17,22,15.40
2021,06,08,17,23,15.50
2021,06,08,17,24,15.50
2021,06,08,17,25,15.50
2021,06,08,17,26,15.60
2021,06,08,17,27,15.60
2021,06,08,17,28,15.50
2021,06,08,17,29,15.50
2021,06,08,17,30,15.50
2021,06,08,17,31,15.50
2021,06,08,17,32,15.50
2021,06,08,17,33,15.50
2021,06,08,17,34,15.50
2021,06,08,17,35,15.70
2021,06,08,17,36,15.70
2021,06,08,17,37,15.70
2021,06,08,17,38,15.70